Location: Kapuskasing
(49.3803°N, 82.4001°W)
Time: 10:39:13
(UTC-04:00)

Envisat - Pass Details

Date: 21 March 2026
Orbit: 761 x 762 km, 98.4° (Epoch: 11 April)

Event Time Altitude Azimuth Distance (km) Brightness Sun altitude
Rises 03:15:01 0° 23° (NNE) 3,235 7.2 -36.1°
Reaches altitude 10° 03:17:42 10° 37° (NE) 2,304 6.2 -35.8°
Enters shadow 03:20:49 24° 72° (ENE) 1,548 4.9 -35.6°
